Temperature
8 8 9 9 9 9 9 9 9 9 10 10 10 10 10 10 10 10 10 10 10 10 10 10 10 10 10 10 10 10 10 10 10 10 10 11 11 11 11 11 11 11 11
8 8 8 8 8 8 9 9 9 9 9 9 9 9 9 9 9 9 9 9 9 9 9 9 9 9 10 10 10 10 10 10 10 10 10 10 10 10 10 10 10 10 10
7 7 7 7 8 8 8 8 8 8 8 9 9 9 9 9 9 9 9 9 9 9 9 9 9 9 9 9 9 9 9 9 9 10 10 10 10 10 10 10 10 10 10
6 7 7 7 7 7 7 7 8 8 8 8 8 8 8 8 8 8 8 8 9 9 9 9 9 9 9 9 9 9 9 9 9 9 9 9 9 10 10 10 10 10 10
5 6 6 6 6 6 6 7 7 7 7 7 7 7 7 7 7 7 7 8 8 8 8 8 8 8 8 8 8 8 8 8 8 9 9 9 9 9 9 10 10 10 10
5 5 5 5 5 6 6 6 6 6 6 6 7 7 7 7 7 7 7 7 7 7 7 8 8 8 8 8 8 8 8 8 8 8 8 8 9 9 9 9 9 9 9
4 4 4 4 5 5 5 5 5 5 5 6 6 6 6 6 6 6 6 6 6 6 7 7 7 7 7 7 8 8 8 7 7 8 8 8 8 8 9 9 9 9 9
3 3 3 4 4 4 4 4 4 4 5 5 5 5 5 5 5 6 6 6 6 6 6 6 6 6 6 7 7 7 7 7 7 7 7 8 8 8 8 8 8 8 8
2 2 2 3 3 3 3 3 3 3 3 4 4 4 4 4 4 5 5 5 5 5 5 5 6 6 6 6 6 7 7 6 6 6 6 7 7 7 7 8 8 8 8
1 1 2 2 2 2 2 2 2 2 2 3 3 3 3 3 3 3 4 5 5 5 5 5 5 5 5 5 5 6 6 6 6 6 6 6 6 7 7 7 7 7 8
1 1 1 1 1 1 1 1 1 1 1 2 2 2 2 2 2 1 2 3 4 4 4 4 4 4 4 5 5 5 5 5 5 5 5 5 6 6 6 7 7 7 7
0 0 0 0 0 0 0 0 0 0 0 0 0 1 1 0 1 0 1 1 2 3 4 4 4 4 4 4 4 4 5 5 5 5 5 5 5 6 6 6 6 6 7
-0 -0 -0 -0 -1 -1 -0 -0 -0 -0 -1 -1 -0 -0 -0 -0 -0 -0 -0 -0 -0 1 2 3 3 3 3 3 3 4 4 4 4 4 4 5 5 5 5 5 6 6 6
-1 -1 -1 -1 -1 -1 -1 -1 -1 -1 -1 -1 -1 -1 -1 -1 -1 -1 -1 -1 -1 -1 0 1 2 2 2 2 3 3 3 4 4 4 4 4 4 4 5 5 5 5 5
-2 -2 -2 -2 -2 -2 -2 -2 -2 -2 -2 -2 -2 -2 -2 -2 -2 -2 -2 -2 -2 -2 -2 -0 1 1 2 2 2 2 2 3 3 3 3 4 4 4 4 4 4 4 5
-3 -3 -3 -3 -3 -3 -3 -3 -2 -3 -3 -3 -3 -2 -2 -2 -2 -2 -2 -2 -2 -2 -3 -2 -1 -0 0 1 1 1 2 2 2 3 3 3 3 3 3 3 4 4 4
-3 -3 -4 -4 -4 -4 -4 -4 -3 -3 -3 -3 -3 -3 -3 -3 -3 -3 -3 -3 -3 -3 -3 -2 -1 -1 -1 -0 0 0 1 1 2 2 2 2 3 3 3 3 3 3 3
-4 -4 -4 -4 -4 -4 -4 -4 -4 -4 -4 -4 -4 -4 -4 -4 -4 -3 -3 -3 -3 -3 -3 -3 -2 -2 -2 -1 -1 -0 -0 0 1 1 1 2 2 2 2 2 2 2 3
-5 -5 -5 -5 -5 -5 -5 -5 -5 -5 -5 -5 -5 -5 -5 -5 -4 -4 -4 -4 -4 -4 -4 -4 -3 -3 -2 -2 -2 -1 -1 -1 -0 -0 0 1 1 1 1 2 2 2 2
-6 -6 -6 -6 -6 -6 -6 -6 -6 -6 -6 -6 -6 -6 -5 -5 -5 -5 -5 -5 -5 -5 -4 -4 -4 -4 -3 -3 -3 -3 -2 -2 -1 -1 -1 -0 0 0 1 1 1 1 1
-6 -7 -7 -7 -7 -7 -6 -6 -6 -7 -7 -6 -6 -6 -6 -6 -6 -6 -6 -5 -5 -5 -5 -5 -5 -4 -4 -4 -4 -4 -3 -3 -2 -2 -2 -1 -1 -0 0 0 1 1 1
-7 -7 -7 -7 -7 -7 -7 -7 -7 -7 -7 -7 -7 -7 -7 -6 -6 -6 -6 -6 -6 -6 -6 -5 -5 -5 -5 -5 -5 -4 -4 -4 -4 -3 -2 -2 -1 -1 -1 -0 -0 0 0
-8 -8 -8 -8 -8 -8 -8 -8 -8 -8 -8 -8 -7 -7 -7 -7 -7 -7 -7 -6 -6 -6 -6 -6 -6 -6 -5 -5 -5 -5 -5 -5 -5 -4 -4 -3 -2 -2 -1 -1 -1 -0 -0
-8 -8 -8 -8 -8 -8 -8 -8 -8 -8 -8 -8 -8 -8 -8 -7 -7 -7 -7 -7 -7 -7 -6 -6 -6 -6 -6 -6 -6 -6 -6 -6 -5 -5 -5 -4 -3 -2 -2 -1 -1 -1 -1
-9 -9 -9 -9 -9 -9 -9 -9 -9 -9 -9 -9 -9 -8 -8 -8 -8 -8 -8 -8 -8 -7 -7 -7 -7 -7 -6 -6 -6 -6 -6 -7 -6 -5 -5 -5 -4 -3 -3 -2 -2 -2 -2
-9 -10 -9 -9 -9 -9 -9 -9 -9 -9 -9 -9 -9 -9 -9 -9 -9 -8 -8 -8 -8 -8 -7 -7 -7 -7 -7 -7 -7 -7 -7 -7 -7 -7 -6 -6 -5 -5 -5 -3 -3 -2 -2
Wind_Speed
6 6 6 6 6 6 5 5 5 6 6 6 6 6 6 6 5 6 5 6 5 4 4 4 4 4 4 4 3 3 3 3 3 2 3 5 4 5 5 5 5 5 4
6 5 5 5 5 5 5 4 4 4 4 5 5 6 6 6 6 6 6 6 6 5 4 3 3 3 4 3 3 3 2 2 2 2 2 4 4 4 4 4 4 4 3
6 5 5 5 6 5 5 4 5 4 4 4 4 5 5 6 5 6 6 6 6 7 5 4 3 3 3 3 3 3 3 3 2 1 1 2 4 4 4 4 4 3 3
6 6 5 5 6 5 5 3 3 2 3 3 3 3 4 5 5 5 5 6 6 7 7 7 5 4 3 3 3 2 3 2 3 2 1 1 2 4 4 4 4 4 3
6 5 5 5 6 6 5 4 3 2 2 2 2 2 3 3 4 4 5 6 6 7 7 8 7 6 5 4 3 2 1 2 2 2 1 0 1 3 4 4 5 5 4
5 5 4 5 5 4 4 4 2 2 1 2 2 2 2 2 3 4 4 4 5 6 7 7 7 7 8 7 6 3 1 1 1 1 1 1 1 2 3 4 4 5 5
5 5 5 5 5 3 3 3 2 2 2 2 2 2 2 2 2 2 3 3 4 5 6 6 6 6 6 7 7 6 4 2 1 1 1 2 2 3 3 5 5 6 6
4 3 4 4 4 3 3 4 3 1 1 3 2 1 2 2 2 2 2 2 3 4 4 4 5 5 6 6 6 7 6 5 3 3 3 3 3 4 4 4 6 6 6
4 3 3 3 3 3 2 2 2 2 1 1 2 1 1 2 2 2 2 2 2 2 3 4 4 5 5 5 5 6 6 6 5 4 4 5 5 5 6 6 5 5 5
3 3 3 3 3 3 2 2 2 1 1 1 1 1 0 1 1 2 2 2 2 2 2 4 4 5 4 4 5 6 6 7 6 5 5 5 5 6 7 7 6 6 6
4 3 2 2 2 2 2 2 2 2 1 0 0 1 1 1 0 1 3 3 3 2 2 3 4 4 4 4 5 6 7 7 7 7 6 6 6 6 6 6 6 6 6
3 4 3 2 2 2 2 2 1 1 1 1 1 1 1 1 1 1 2 3 4 3 3 3 2 3 4 5 5 8 7 7 7 8 8 7 6 6 6 7 6 6 6
2 3 3 3 3 3 2 2 1 1 1 2 2 2 2 2 2 2 3 3 4 3 2 2 1 3 4 5 6 8 7 8 8 8 8 8 7 6 7 7 7 7 7
3 4 3 3 3 3 3 2 2 2 2 2 2 2 2 2 2 2 2 2 3 3 2 3 2 3 4 6 7 8 7 9 9 9 9 9 8 7 7 7 8 8 8
4 3 3 3 3 3 3 2 2 2 2 2 3 3 3 3 2 2 2 3 3 3 4 3 2 2 6 7 8 8 8 9 10 10 9 9 9 8 8 8 8 9 9
4 3 3 3 3 3 3 2 2 2 2 3 3 3 3 3 3 2 3 3 4 5 5 3 3 4 6 8 9 9 9 10 10 10 10 10 10 9 9 9 9 9 10
3 3 3 2 2 3 3 2 2 3 3 3 3 4 4 3 3 3 3 3 4 4 7 6 4 4 5 5 8 9 9 9 9 10 11 11 11 11 10 11 10 10 10
3 3 3 3 3 3 3 3 3 4 4 4 4 4 5 4 4 4 4 4 4 5 6 8 6 5 5 5 6 6 8 8 9 10 12 12 11 11 11 12 11 11 11
3 3 3 3 3 4 4 4 4 4 5 5 5 5 5 5 6 5 5 5 5 5 5 6 7 5 4 4 5 6 6 6 8 9 10 10 11 12 11 11 12 11 11
3 3 3 4 4 4 5 5 5 5 5 6 6 6 6 6 7 6 6 6 6 6 5 6 6 6 5 4 4 4 5 4 6 7 9 10 12 12 11 11 11 11 12
3 3 3 4 4 4 5 5 6 6 6 6 6 7 7 9 10 9 7 6 6 6 6 6 6 6 5 4 4 4 6 5 5 4 5 6 7 8 9 11 12 12 13
3 3 4 4 5 5 8 10 8 6 7 7 7 7 7 9 11 13 13 13 11 9 8 7 7 7 7 5 5 5 5 5 6 2 4 6 5 7 8 9 12 13 13
3 4 4 5 6 7 11 11 11 8 6 6 7 7 7 7 9 7 10 13 13 15 14 10 9 9 7 6 6 7 7 7 7 5 5 7 5 8 8 10 13 14 14
4 4 5 5 6 8 11 11 12 7 6 6 7 7 8 7 8 9 9 9 9 10 11 9 9 9 9 8 8 8 8 7 7 6 5 6 6 6 7 9 13 14 14
4 5 5 5 6 8 11 12 11 5 6 7 7 8 8 8 13 14 10 10 10 9 12 15 15 14 14 13 10 5 5 6 7 5 4 4 4 5 6 6 10 12 13
5 5 6 6 7 8 11 12 11 5 6 7 7 8 11 12 14 14 10 9 10 10 8 9 10 10 9 9 11 7 6 6 6 5 3 3 4 4 5 4 5 7 9
Wind_Direction
39 36 38 38 36 38 40 38 38 33 33 32 34 34 26 22 23 22 17 19 26 33 36 46 56 69 72 81 91 105 100 96 105 132 145 139 135 131 129 126 121 118 112
46 38 32 34 30 27 32 39 37 33 30 32 29 25 22 23 26 29 26 26 29 29 26 36 45 61 60 69 79 87 88 100 107 108 152 155 153 150 148 143 139 133 125
46 42 32 26 21 21 31 41 38 38 34 29 19 19 22 19 24 34 37 37 36 32 27 28 28 43 46 52 68 77 67 70 71 83 141 160 164 168 169 166 162 165 156
46 47 35 20 17 24 34 35 32 33 30 21 10 7 15 18 25 35 47 45 44 38 33 33 28 28 31 32 44 62 70 62 63 60 74 128 169 183 182 185 185 187 189
42 49 39 22 25 32 30 27 25 40 28 12 1 2 7 17 21 38 47 48 46 43 36 29 29 31 26 18 9 24 48 54 53 51 40 118 157 190 200 202 204 206 205
38 51 43 30 33 33 23 19 18 23 34 7 10 5 350 9 32 41 42 44 42 40 35 32 30 25 24 23 12 3 4 25 40 28 9 332 261 235 212 216 218 217 218
32 50 40 32 34 35 26 21 20 25 28 24 43 9 354 14 34 34 33 39 35 33 33 31 27 22 13 9 12 9 1 338 303 287 293 305 289 278 253 233 230 227 225
23 44 43 30 26 29 37 32 31 33 30 31 47 58 338 337 353 357 5 22 17 26 21 15 17 11 4 359 355 4 3 353 318 282 275 280 285 272 270 260 243 238 234
7 25 39 36 27 30 34 24 30 54 25 5 38 86 143 255 306 318 344 349 354 7 3 356 353 347 347 347 348 357 359 349 331 305 282 275 281 281 266 266 260 254 246
0 20 37 36 24 23 18 360 18 18 57 14 352 8 8 177 232 307 309 330 350 354 343 342 329 326 335 338 342 348 349 350 333 308 296 290 289 285 282 273 272 261 256
355 9 22 26 11 3 356 356 359 7 13 305 322 311 310 344 195 225 280 310 330 317 325 323 317 326 338 341 343 342 340 336 333 321 301 292 293 297 297 295 284 272 264
340 351 352 356 343 332 323 319 331 350 339 301 280 253 232 232 232 229 251 284 295 299 311 309 314 329 338 341 343 344 336 327 322 319 312 299 291 292 292 293 294 296 279
308 314 324 326 320 309 308 312 306 302 288 284 270 266 259 257 251 246 254 271 282 292 289 283 302 331 332 336 332 332 331 330 325 318 312 305 294 288 290 289 288 288 293
276 293 300 305 306 306 305 306 294 285 282 269 273 269 269 267 263 255 244 256 285 288 270 269 298 319 331 328 324 323 318 320 320 314 308 304 298 284 280 283 284 284 285
292 291 293 296 301 303 295 287 275 276 276 269 266 267 267 269 264 260 260 241 236 264 269 262 278 308 322 314 314 313 307 307 307 306 305 300 294 284 272 272 276 278 278
286 284 286 291 298 297 293 290 285 276 265 273 268 262 264 261 262 263 260 259 247 247 262 261 272 295 310 307 306 307 301 300 300 300 296 296 293 282 270 265 268 271 273
276 275 277 281 285 288 288 280 276 277 269 274 275 265 265 263 258 254 254 257 260 253 262 276 278 292 289 296 306 303 298 292 292 293 292 292 290 283 273 263 261 264 268
271 271 273 274 275 279 276 265 269 273 267 269 272 269 267 264 260 254 249 251 255 256 258 274 282 282 280 284 291 295 299 295 292 291 290 287 285 285 278 266 260 259 262
270 275 273 264 270 274 272 269 262 264 261 261 261 261 263 256 258 256 251 251 256 261 258 263 274 276 279 284 289 292 291 290 296 292 288 285 286 288 281 271 260 257 258
252 253 267 267 270 272 271 269 267 266 264 264 262 259 259 255 252 251 254 251 254 257 258 263 270 271 272 273 269 280 290 286 290 294 287 287 286 285 280 275 265 258 258
268 267 269 272 273 268 263 260 260 262 262 262 263 261 259 260 260 257 254 248 247 254 256 259 267 269 266 268 266 273 280 289 282 278 283 284 286 280 277 274 265 258 258
272 266 261 263 269 272 273 276 275 265 265 265 266 265 261 264 267 270 271 267 259 254 253 255 261 261 259 253 261 268 279 289 285 270 274 279 274 265 269 267 267 263 261
263 263 265 262 265 270 275 277 277 277 266 262 264 265 268 267 271 265 271 275 274 270 262 256 254 256 254 246 246 257 258 264 270 274 279 275 264 266 268 266 268 267 259
256 259 264 263 267 272 276 278 281 281 271 264 263 261 262 264 265 265 261 263 264 266 266 264 252 250 248 245 241 246 255 265 271 265 258 267 267 268 275 269 263 260 259
263 263 262 260 264 272 276 279 283 274 270 267 265 261 261 260 267 270 264 260 264 266 270 269 267 265 264 264 259 254 255 265 275 272 243 255 271 282 275 262 258 253 255
268 271 274 266 262 266 273 277 281 271 270 272 269 265 269 269 271 271 260 253 259 262 263 267 269 273 271 267 264 249 241 253 268 273 241 245 269 289 285 267 258 260 259
Height
1533 1534 1534 1534 1534 1534 1534 1534 1535 1535 1535 1536 1536 1536 1537 1537 1537 1538 1538 1539 1540 1541 1541 1542 1543 1543 1544 1545 1545 1546 1547 1547 1548 1549 1550 1551 1551 1552 1553 1554 1554 1555 1556
1532 1532 1532 1532 1532 1532 1533 1533 1533 1533 1534 1534 1534 1534 1535 1535 1535 1536 1536 1537 1538 1539 1539 1540 1541 1541 1542 1543 1543 1544 1545 1546 1547 1547 1549 1549 1550 1551 1552 1553 1554 1554 1555
1530 1530 1530 1530 1530 1531 1531 1531 1531 1531 1532 1532 1532 1533 1533 1533 1533 1533 1534 1534 1535 1536 1537 1538 1539 1539 1540 1541 1542 1542 1543 1544 1545 1546 1547 1548 1549 1550 1550 1551 1552 1553 1554
1528 1528 1528 1528 1528 1528 1529 1529 1529 1529 1529 1529 1530 1530 1531 1531 1531 1532 1532 1532 1533 1534 1535 1535 1536 1537 1538 1539 1539 1540 1541 1542 1543 1544 1545 1546 1547 1548 1549 1550 1551 1552 1552
1526 1526 1526 1526 1526 1526 1526 1526 1526 1527 1527 1527 1527 1528 1529 1529 1529 1530 1530 1531 1531 1531 1532 1533 1534 1534 1535 1536 1537 1538 1539 1539 1540 1541 1543 1544 1544 1545 1547 1547 1549 1550 1551
1523 1524 1524 1524 1523 1523 1523 1524 1524 1524 1524 1524 1525 1526 1526 1527 1527 1527 1528 1528 1529 1529 1530 1530 1531 1532 1532 1533 1534 1535 1536 1537 1538 1539 1540 1541 1542 1543 1544 1545 1546 1547 1548
1521 1521 1521 1521 1521 1521 1521 1521 1521 1521 1521 1522 1522 1523 1523 1524 1524 1525 1525 1526 1526 1527 1528 1528 1528 1529 1530 1531 1531 1532 1533 1534 1535 1536 1537 1538 1539 1540 1541 1542 1543 1544 1545
1518 1518 1518 1518 1518 1518 1518 1518 1518 1518 1518 1519 1519 1520 1520 1522 1521 1522 1523 1523 1524 1524 1525 1525 1525 1526 1526 1527 1528 1529 1530 1531 1532 1533 1534 1535 1536 1537 1538 1539 1540 1541 1542
1516 1516 1516 1516 1516 1516 1516 1516 1516 1516 1515 1516 1517 1519 1519 1518 1518 1518 1519 1520 1520 1521 1521 1522 1523 1523 1523 1524 1525 1525 1526 1527 1528 1529 1531 1532 1533 1534 1535 1536 1537 1537 1538
1513 1513 1513 1513 1513 1513 1513 1513 1513 1513 1513 1513 1514 1515 1517 1516 1516 1515 1515 1516 1517 1517 1518 1519 1519 1520 1520 1520 1521 1522 1522 1523 1524 1525 1527 1528 1529 1530 1531 1532 1533 1534 1535
1509 1510 1510 1510 1510 1510 1510 1510 1510 1510 1510 1511 1511 1511 1512 1513 1513 1513 1511 1511 1512 1513 1514 1515 1515 1516 1516 1517 1517 1517 1518 1519 1520 1521 1522 1523 1524 1526 1527 1528 1529 1530 1531
1505 1506 1506 1506 1507 1507 1507 1507 1507 1507 1507 1508 1508 1508 1509 1509 1509 1509 1509 1507 1507 1508 1510 1511 1511 1511 1512 1512 1513 1513 1514 1514 1515 1516 1517 1518 1519 1521 1522 1523 1524 1525 1526
1501 1502 1502 1502 1503 1503 1503 1503 1503 1504 1504 1504 1505 1505 1505 1506 1506 1506 1506 1505 1504 1503 1504 1506 1507 1508 1508 1508 1508 1509 1509 1510 1510 1511 1512 1513 1514 1516 1517 1518 1519 1520 1521
1497 1498 1498 1498 1499 1499 1499 1499 1499 1500 1500 1500 1501 1501 1502 1502 1502 1502 1503 1503 1501 1500 1499 1500 1502 1503 1503 1503 1504 1504 1504 1505 1506 1506 1507 1508 1509 1510 1511 1513 1514 1515 1516
1493 1493 1494 1494 1494 1495 1495 1495 1495 1495 1496 1496 1497 1497 1497 1498 1498 1498 1499 1499 1500 1497 1495 1496 1497 1498 1499 1499 1499 1499 1499 1500 1500 1501 1502 1503 1504 1505 1506 1507 1508 1509 1510
1489 1489 1489 1489 1490 1490 1491 1491 1491 1491 1491 1492 1492 1492 1493 1493 1493 1494 1494 1495 1495 1495 1492 1490 1492 1493 1494 1494 1494 1494 1494 1495 1495 1496 1496 1497 1498 1499 1500 1501 1502 1504 1505
1484 1484 1484 1485 1485 1485 1486 1486 1486 1486 1486 1487 1488 1488 1488 1488 1489 1489 1490 1490 1490 1490 1488 1486 1487 1488 1488 1489 1489 1489 1489 1489 1489 1490 1490 1491 1492 1493 1494 1495 1496 1498 1499
1479 1479 1479 1480 1480 1481 1481 1481 1481 1481 1481 1482 1482 1483 1483 1483 1484 1484 1485 1485 1485 1485 1484 1481 1481 1483 1483 1483 1483 1483 1483 1483 1483 1483 1484 1485 1486 1487 1488 1489 1490 1491 1493
1474 1474 1474 1474 1475 1475 1476 1476 1476 1476 1476 1477 1477 1477 1478 1478 1478 1479 1479 1479 1480 1479 1479 1478 1476 1477 1477 1478 1477 1477 1477 1477 1477 1477 1478 1478 1479 1480 1481 1482 1484 1485 1486
1469 1469 1469 1470 1470 1470 1470 1471 1471 1471 1471 1471 1472 1472 1472 1472 1473 1473 1474 1474 1474 1474 1474 1473 1472 1471 1472 1472 1472 1471 1471 1471 1471 1471 1471 1472 1473 1473 1474 1475 1477 1478 1479
1464 1464 1464 1465 1465 1465 1465 1466 1466 1466 1466 1466 1466 1466 1466 1466 1467 1468 1468 1468 1469 1469 1468 1468 1466 1466 1466 1466 1466 1466 1465 1464 1464 1465 1464 1465 1466 1466 1467 1468 1469 1470 1472
1459 1460 1460 1460 1460 1460 1460 1461 1461 1461 1461 1460 1460 1460 1460 1460 1460 1461 1462 1463 1463 1463 1462 1462 1460 1460 1460 1461 1461 1461 1460 1459 1457 1459 1458 1457 1459 1459 1460 1460 1461 1463 1464
1455 1455 1455 1455 1455 1455 1455 1455 1456 1456 1455 1455 1454 1454 1453 1453 1454 1454 1455 1455 1456 1456 1457 1456 1455 1454 1454 1455 1455 1454 1454 1453 1452 1452 1452 1449 1451 1451 1452 1452 1454 1455 1457
1450 1450 1450 1450 1450 1450 1450 1450 1450 1450 1449 1448 1448 1448 1447 1447 1448 1448 1448 1448 1448 1448 1449 1449 1449 1448 1449 1449 1449 1449 1448 1447 1446 1446 1446 1444 1443 1443 1444 1445 1446 1448 1449
1445 1445 1445 1445 1444 1444 1444 1444 1444 1443 1443 1442 1442 1442 1442 1441 1441 1442 1442 1441 1441 1441 1441 1442 1442 1442 1443 1443 1443 1443 1442 1441 1439 1439 1440 1439 1436 1436 1436 1436 1438 1440 1441
1441 1440 1440 1440 1440 1439 1439 1439 1439 1438 1437 1436 1436 1436 1435 1436 1436 1436 1436 1435 1434 1433 1434 1434 1434 1435 1435 1436 1436 1436 1435 1435 1433 1433 1433 1433 1431 1431 1428 1428 1430 1432 1433